Location: Newark
(49.8969°N, 3.3422°E)
Time: 21:02:52
(UTC+00:00)

Explorer 7 - Pass Details

Date: 01 February 2020
Orbit: 485 x 679 km, 50.3° (Epoch: 26 February)

Event Time Altitude Azimuth Distance (km) Brightness Sun altitude
Rises 00:45:07 0° 284° (WNW) 2,554 - -56.2°
Reaches altitude 10° 00:47:19 10° 280° (W) 1,669 - -56.0°
Maximum altitude 00:50:58 51° 204° (SSW) 621 - -55.8°
Drops below altitude 10° 00:54:40 10° 127° (SE) 1,693 - -55.6°
Sets 00:56:55 0° 123° (ESE) 2,594 - -55.5°
